Time,TemperatureF,DewpointF,PressureIn,WindDirection,WindDirectionDegrees,WindSpeedMPH,WindSpeedGustMPH,Humidity,HourlyPrecipIn,Conditions,Clouds,dailyrainin,SolarRadiationWatts/m^2,SoftwareType,DateUTC
2013-07-01 00:00:00,72.8,71.3,29.86,SSE,154,3.0,3.0,95,0.10,,,0.52,0,Wunderground v.1.15,2013-07-01 04:00:00,
2013-07-01 00:05:00,72.5,71.0,29.87,SE,137,3.0,3.0,95,0.10,,,0.00,0,Wunderground v.1.15,2013-07-01 04:05:00,
2013-07-01 00:10:00,72.2,70.7,29.87,SE,146,2.0,2.0,95,0.08,,,0.01,0,Wunderground v.1.15,2013-07-01 04:10:00,
2013-07-01 00:15:00,71.9,70.1,29.86,South,177,1.0,2.0,94,0.08,,,0.01,0,Wunderground v.1.15,2013-07-01 04:15:00,
2013-07-01 00:20:00,71.7,69.9,29.86,ESE,111,0.0,0.0,94,0.06,,,0.02,0,Wunderground v.1.15,2013-07-01 04:20:00,
2013-07-01 00:25:00,71.5,70.0,29.86,NE,40,0.0,0.0,95,0.06,,,0.02,0,Wunderground v.1.15,2013-07-01 04:25:00,
2013-07-01 00:30:00,71.3,69.8,29.86,NE,49,0.0,0.0,95,0.05,,,0.02,0,Wunderground v.1.15,2013-07-01 04:30:00,
2013-07-01 00:35:00,71.2,69.7,29.86,NE,49,0.0,0.0,95,0.00,,,0.02,0,Wunderground v.1.15,2013-07-01 04:35:00,
2013-07-01 00:40:00,71.1,69.6,29.86,ENE,72,0.0,0.0,95,0.00,,,0.02,0,Wunderground v.1.15,2013-07-01 04:40:00,
2013-07-01 00:45:00,71.0,69.5,29.86,South,179,0.0,0.0,95,0.00,,,0.02,0,Wunderground v.1.15,2013-07-01 04:45:00,
2013-07-01 00:50:00,70.9,69.7,29.86,ENE,74,0.0,0.0,96,0.00,,,0.03,0,Wunderground v.1.15,2013-07-01 04:50:00,
2013-07-01 00:55:00,70.8,69.3,29.86,SE,135,0.0,0.0,95,0.00,,,0.03,0,Wunderground v.1.15,2013-07-01 04:55:00,
2013-07-01 01:00:00,70.8,69.6,29.86,SE,144,0.0,0.0,96,0.00,,,0.03,0,Wunderground v.1.15,2013-07-01 05:00:00,
2013-07-01 01:05:00,70.8,69.6,29.86,South,186,0.0,0.0,96,0.00,,,0.03,0,Wunderground v.1.15,2013-07-01 05:05:00,
2013-07-01 01:10:00,70.8,69.6,29.86,South,186,0.0,0.0,96,0.00,,,0.03,0,Wunderground v.1.15,2013-07-01 05:10:00,
2013-07-01 01:15:00,70.8,69.6,29.86,South,186,0.0,0.0,96,0.00,,,0.03,0,Wunderground v.1.15,2013-07-01 05:15:00,
2013-07-01 01:20:00,70.8,69.6,29.86,South,186,0.0,0.0,96,0.00,,,0.03,0,Wunderground v.1.15,2013-07-01 05:20:00,
2013-07-01 01:25:00,70.8,69.6,29.86,South,186,0.0,0.0,96,0.00,,,0.03,0,Wunderground v.1.15,2013-07-01 05:25:00,
2013-07-01 01:35:00,70.8,69.6,29.86,South,186,0.0,0.0,96,0.00,,,0.03,0,Wunderground v.1.15,2013-07-01 05:35:00,
2013-07-01 01:40:00,70.8,69.6,29.87,South,186,0.0,0.0,96,0.00,,,0.03,0,Wunderground v.1.15,2013-07-01 05:40:00,
2013-07-01 01:45:00,70.7,69.5,29.87,South,186,0.0,0.0,96,0.00,,,0.03,0,Wunderground v.1.15,2013-07-01 05:45:00,
2013-07-01 01:50:00,70.7,69.8,29.87,SSE,164,0.0,0.0,97,0.00,,,0.03,0,Wunderground v.1.15,2013-07-01 05:50:00,
2013-07-01 02:00:00,70.6,69.7,29.87,SSE,161,0.0,0.0,97,0.00,,,0.04,0,Wunderground v.1.15,2013-07-01 06:00:00,
2013-07-01 02:05:00,70.6,69.7,29.86,SSE,155,0.0,0.0,97,0.11,,,0.05,0,Wunderground v.1.15,2013-07-01 06:05:00,
2013-07-01 02:10:00,70.6,69.7,29.86,SE,132,0.0,0.0,97,0.40,,,0.08,0,Wunderground v.1.15,2013-07-01 06:10:00,
2013-07-01 02:15:00,70.6,69.7,29.85,SSW,192,0.0,0.0,97,0.30,,,0.10,0,Wunderground v.1.15,2013-07-01 06:15:00,
2013-07-01 02:25:00,70.7,69.8,29.84,SSW,192,0.0,0.0,97,0.05,,,0.10,0,Wunderground v.1.15,2013-07-01 06:25:00,
2013-07-01 02:30:00,70.7,69.8,29.84,SSW,192,0.0,0.0,97,0.04,,,0.10,0,Wunderground v.1.15,2013-07-01 06:30:00,
2013-07-01 02:35:00,70.7,69.8,29.83,SSW,192,0.0,0.0,97,0.00,,,0.10,0,Wunderground v.1.15,2013-07-01 06:35:00,
2013-07-01 02:45:00,70.7,69.8,29.84,SSW,192,0.0,0.0,97,0.00,,,0.10,0,Wunderground v.1.15,2013-07-01 06:45:00,
2013-07-01 02:50:00,70.7,69.8,29.84,SSW,192,0.0,0.0,97,0.00,,,0.10,0,Wunderground v.1.15,2013-07-01 06:50:00,
2013-07-01 02:55:00,70.7,69.8,29.84,SSW,204,0.0,0.0,97,0.00,,,0.10,0,Wunderground v.1.15,2013-07-01 06:55:00,
2013-07-01 03:00:00,70.6,69.7,29.85,SSW,204,0.0,0.0,97,0.00,,,0.10,0,Wunderground v.1.15,2013-07-01 07:00:00,
2013-07-01 03:10:00,70.6,69.7,29.85,SSW,204,0.0,0.0,97,0.00,,,0.10,0,Wunderground v.1.15,2013-07-01 07:10:00,
2013-07-01 03:15:00,70.7,69.8,29.84,SSW,204,0.0,0.0,97,0.00,,,0.10,0,Wunderground v.1.15,2013-07-01 07:15:00,
2013-07-01 03:20:00,70.7,69.8,29.84,SSW,204,0.0,0.0,97,0.00,,,0.10,0,Wunderground v.1.15,2013-07-01 07:20:00,
2013-07-01 03:30:00,70.7,69.8,29.85,SSW,204,0.0,0.0,97,0.00,,,0.10,0,Wunderground v.1.15,2013-07-01 07:30:00,
2013-07-01 03:35:00,70.7,69.8,29.85,SSW,204,0.0,0.0,97,0.00,,,0.10,0,Wunderground v.1.15,2013-07-01 07:35:00,
2013-07-01 03:40:00,70.6,69.7,29.84,SSW,204,0.0,0.0,97,0.00,,,0.10,0,Wunderground v.1.15,2013-07-01 07:40:00,
2013-07-01 03:45:00,70.6,69.7,29.84,ENE,73,0.0,0.0,97,0.00,,,0.10,0,Wunderground v.1.15,2013-07-01 07:45:00,
2013-07-01 03:50:00,70.6,70.0,29.84,ENE,73,0.0,0.0,98,0.00,,,0.10,0,Wunderground v.1.15,2013-07-01 07:50:00,
2013-07-01 04:00:00,70.8,70.2,29.84,South,188,0.0,0.0,98,0.00,,,0.10,0,Wunderground v.1.15,2013-07-01 08:00:00,
2013-07-01 04:05:00,70.9,70.3,29.85,South,188,0.0,0.0,98,0.00,,,0.10,0,Wunderground v.1.15,2013-07-01 08:05:00,
2013-07-01 04:10:00,71.1,70.5,29.85,South,169,0.0,0.0,98,0.00,,,0.10,0,Wunderground v.1.15,2013-07-01 08:10:00,
2013-07-01 04:15:00,71.2,70.6,29.85,SSE,157,0.0,0.0,98,0.00,,,0.10,0,Wunderground v.1.15,2013-07-01 08:15:00,
2013-07-01 04:25:00,71.2,70.6,29.84,South,189,0.0,0.0,98,0.00,,,0.10,0,Wunderground v.1.15,2013-07-01 08:25:00,
2013-07-01 04:30:00,71.3,70.7,29.85,South,189,0.0,0.0,98,0.00,,,0.10,0,Wunderground v.1.15,2013-07-01 08:30:00,
2013-07-01 04:35:00,71.3,70.7,29.85,South,189,0.0,0.0,98,0.00,,,0.10,0,Wunderground v.1.15,2013-07-01 08:35:00,
2013-07-01 04:40:00,71.3,70.7,29.85,South,189,0.0,0.0,98,0.00,,,0.10,0,Wunderground v.1.15,2013-07-01 08:40:00,
2013-07-01 04:45:00,71.3,70.7,29.85,South,189,0.0,0.0,98,0.00,,,0.10,0,Wunderground v.1.15,2013-07-01 08:45:00,
2013-07-01 04:55:00,71.3,70.7,29.85,South,189,0.0,0.0,98,0.00,,,0.10,0,Wunderground v.1.15,2013-07-01 08:55:00,
2013-07-01 05:00:00,71.4,70.8,29.86,South,189,0.0,0.0,98,0.00,,,0.10,0,Wunderground v.1.15,2013-07-01 09:00:00,
2013-07-01 05:05:00,71.5,70.9,29.86,SSE,158,0.0,0.0,98,0.00,,,0.10,0,Wunderground v.1.15,2013-07-01 09:05:00,
2013-07-01 05:15:00,71.5,70.9,29.86,SSE,155,0.0,0.0,98,0.00,,,0.10,0,Wunderground v.1.15,2013-07-01 09:15:00,
2013-07-01 05:20:00,71.6,71.0,29.86,SSE,155,0.0,0.0,98,0.00,,,0.10,0,Wunderground v.1.15,2013-07-01 09:20:00,
2013-07-01 05:25:00,71.7,71.1,29.87,SSE,155,0.0,0.0,98,0.00,,,0.10,0,Wunderground v.1.15,2013-07-01 09:25:00,
2013-07-01 05:30:00,71.7,71.1,29.87,SSE,155,0.0,0.0,98,0.00,,,0.10,0,Wunderground v.1.15,2013-07-01 09:30:00,
2013-07-01 05:40:00,71.8,71.2,29.87,SSE,155,0.0,0.0,98,0.00,,,0.10,0,Wunderground v.1.15,2013-07-01 09:40:00,
2013-07-01 05:45:00,71.8,71.2,29.87,SSE,155,0.0,0.0,98,0.00,,,0.10,0,Wunderground v.1.15,2013-07-01 09:45:00,
2013-07-01 05:50:00,71.8,71.2,29.87,SSE,155,0.0,0.0,98,0.00,,,0.10,0,Wunderground v.1.15,2013-07-01 09:50:00,
2013-07-01 05:55:00,71.9,71.3,29.87,SSE,155,0.0,0.0,98,0.00,,,0.10,0,Wunderground v.1.15,2013-07-01 09:55:00,
2013-07-01 06:00:00,71.9,71.3,29.88,SSE,155,0.0,0.0,98,0.00,,,0.10,0,Wunderground v.1.15,2013-07-01 10:00:00,
2013-07-01 06:10:00,71.9,71.3,29.88,SSE,155,0.0,0.0,98,0.00,,,0.10,0,Wunderground v.1.15,2013-07-01 10:10:00,
2013-07-01 06:15:00,71.9,71.3,29.88,SSE,155,0.0,0.0,98,0.00,,,0.10,0,Wunderground v.1.15,2013-07-01 10:15:00,
2013-07-01 06:20:00,72.0,71.4,29.88,SSE,155,0.0,0.0,98,0.00,,,0.10,0,Wunderground v.1.15,2013-07-01 10:20:00,
2013-07-01 06:25:00,72.0,71.4,29.88,SSE,155,0.0,0.0,98,0.00,,,0.10,5,Wunderground v.1.15,2013-07-01 10:25:00,
2013-07-01 06:35:00,72.1,71.5,29.88,SSE,155,0.0,0.0,98,0.00,,,0.10,7,Wunderground v.1.15,2013-07-01 10:35:00,
2013-07-01 06:40:00,72.1,71.5,29.89,SSE,155,0.0,0.0,98,0.00,,,0.10,14,Wunderground v.1.15,2013-07-01 10:40:00,
2013-07-01 06:45:00,72.3,71.7,29.89,SSE,159,0.0,0.0,98,0.00,,,0.10,19,Wunderground v.1.15,2013-07-01 10:45:00,
2013-07-01 06:50:00,72.4,71.8,29.89,SSE,159,0.0,0.0,98,0.00,,,0.10,19,Wunderground v.1.15,2013-07-01 10:50:00,
2013-07-01 07:00:00,72.5,71.9,29.89,SSE,168,0.0,0.0,98,0.00,,,0.10,35,Wunderground v.1.15,2013-07-01 11:00:00,
2013-07-01 07:05:00,72.6,72.0,29.89,SSE,168,0.0,0.0,98,0.00,,,0.10,23,Wunderground v.1.15,2013-07-01 11:05:00,
2013-07-01 07:10:00,72.7,72.1,29.88,SSE,168,0.0,0.0,98,0.00,,,0.10,26,Wunderground v.1.15,2013-07-01 11:10:00,
2013-07-01 07:15:00,72.8,72.2,29.88,SSE,168,0.0,0.0,98,0.00,,,0.10,42,Wunderground v.1.15,2013-07-01 11:15:00,
2013-07-01 07:20:00,72.9,72.3,29.89,SSE,168,0.0,0.0,98,0.00,,,0.10,49,Wunderground v.1.15,2013-07-01 11:20:00,
2013-07-01 07:30:00,73.1,72.5,29.88,SSE,155,0.0,0.0,98,0.00,,,0.10,67,Wunderground v.1.15,2013-07-01 11:30:00,
2013-07-01 07:35:00,73.2,72.6,29.88,SSE,155,0.0,0.0,98,0.00,,,0.10,69,Wunderground v.1.15,2013-07-01 11:35:00,
2013-07-01 07:40:00,73.3,72.7,29.89,SSE,155,0.0,0.0,98,0.00,,,0.10,56,Wunderground v.1.15,2013-07-01 11:40:00,
2013-07-01 07:45:00,73.5,72.9,29.89,SSE,155,0.0,0.0,98,0.00,,,0.10,86,Wunderground v.1.15,2013-07-01 11:45:00,
2013-07-01 07:55:00,73.8,73.2,29.90,SSE,155,0.0,0.0,98,0.00,,,0.10,60,Wunderground v.1.15,2013-07-01 11:55:00,
2013-07-01 08:00:00,73.8,73.2,29.90,South,186,0.0,0.0,98,0.00,,,0.10,42,Wunderground v.1.15,2013-07-01 12:00:00,
2013-07-01 08:05:00,73.8,73.2,29.90,South,170,0.0,0.0,98,0.00,,,0.10,63,Wunderground v.1.15,2013-07-01 12:05:00,
2013-07-01 08:10:00,73.8,73.2,29.90,SE,130,0.0,0.0,98,0.00,,,0.10,46,Wunderground v.1.15,2013-07-01 12:10:00,
2013-07-01 08:15:00,73.8,73.2,29.90,SSE,159,0.0,0.0,98,0.00,,,0.10,44,Wunderground v.1.15,2013-07-01 12:15:00,
2013-07-01 08:25:00,73.8,73.2,29.89,SSE,156,0.0,0.0,98,0.00,,,0.10,23,Wunderground v.1.15,2013-07-01 12:25:00,
2013-07-01 08:30:00,73.7,73.1,29.90,South,170,0.0,0.0,98,0.00,,,0.10,9,Wunderground v.1.15,2013-07-01 12:30:00,
2013-07-01 08:35:00,73.8,73.2,29.92,SSE,150,0.0,0.0,98,0.17,,,0.12,0,Wunderground v.1.15,2013-07-01 12:35:00,
2013-07-01 08:40:00,73.8,73.2,29.93,South,173,1.0,4.0,98,1.15,,,0.22,0,Wunderground v.1.15,2013-07-01 12:40:00,
2013-07-01 08:50:00,73.5,72.9,29.93,SSW,192,8.0,8.0,98,0.26,,,0.52,7,Wunderground v.1.15,2013-07-01 12:50:00,
2013-07-01 08:55:00,73.3,72.4,29.92,South,169,7.0,8.0,97,0.26,,,0.55,11,Wunderground v.1.15,2013-07-01 12:55:00,
2013-07-01 09:00:00,73.5,72.6,29.92,SSW,208,3.0,3.0,97,0.26,,,0.57,9,Wunderground v.1.15,2013-07-01 13:00:00,
2013-07-01 09:05:00,73.6,72.7,29.93,SSW,203,1.0,7.0,97,2.56,,,0.64,7,Wunderground v.1.15,2013-07-01 13:05:00,
2013-07-01 09:15:00,71.9,70.7,29.93,South,190,9.0,10.0,96,2.29,,,0.83,14,Wunderground v.1.15,2013-07-01 13:15:00,
2013-07-01 09:20:00,71.2,70.0,29.92,SW,233,7.0,7.0,96,0.55,,,0.88,16,Wunderground v.1.15,2013-07-01 13:20:00,
2013-07-01 09:25:00,70.6,69.1,29.92,South,173,5.0,7.0,95,0.88,,,0.94,23,Wunderground v.1.15,2013-07-01 13:25:00,
2013-07-01 09:30:00,70.5,69.3,29.92,SSW,207,5.0,5.0,96,0.27,,,0.97,30,Wunderground v.1.15,2013-07-01 13:30:00,
2013-07-01 09:35:00,70.3,69.1,29.92,South,181,4.0,5.0,96,0.14,,,0.98,60,Wunderground v.1.15,2013-07-01 13:35:00,
2013-07-01 09:45:00,70.0,68.8,29.91,South,171,0.0,2.0,96,0.05,,,0.99,137,Wunderground v.1.15,2013-07-01 13:45:00,
2013-07-01 09:50:00,70.0,69.1,29.92,SSE,149,1.0,4.0,97,0.05,,,0.99,98,Wunderground v.1.15,2013-07-01 13:50:00,
2013-07-01 09:55:00,70.0,69.1,29.92,SSW,197,2.0,4.0,97,0.05,,,0.99,97,Wunderground v.1.15,2013-07-01 13:55:00,
2013-07-01 10:00:00,70.2,69.3,29.92,SSE,164,3.0,5.0,97,0.04,,,0.99,128,Wunderground v.1.15,2013-07-01 14:00:00,
2013-07-01 10:10:00,70.4,69.5,29.92,South,174,2.0,2.0,97,0.00,,,1.00,142,Wunderground v.1.15,2013-07-01 14:10:00,
2013-07-01 10:15:00,70.4,69.5,29.91,SSW,196,2.0,2.0,97,0.00,,,1.00,144,Wunderground v.1.15,2013-07-01 14:15:00,
2013-07-01 10:20:00,70.6,69.4,29.92,SSW,207,1.0,1.0,96,0.00,,,1.00,192,Wunderground v.1.15,2013-07-01 14:20:00,
2013-07-01 10:25:00,70.8,69.6,29.92,SW,219,1.0,1.0,96,0.00,,,1.00,262,Wunderground v.1.15,2013-07-01 14:25:00,
2013-07-01 10:35:00,71.3,70.1,29.92,SSW,213,1.0,3.0,96,0.00,,,1.00,271,Wunderground v.1.15,2013-07-01 14:35:00,
2013-07-01 10:40:00,71.6,70.4,29.92,SSW,202,1.0,1.0,96,0.00,,,1.00,255,Wunderground v.1.15,2013-07-01 14:40:00,
2013-07-01 10:45:00,71.8,70.6,29.92,SW,218,0.0,1.0,96,0.00,,,1.00,276,Wunderground v.1.15,2013-07-01 14:45:00,
2013-07-01 10:50:00,72.1,70.9,29.92,SSW,196,1.0,1.0,96,0.00,,,1.00,373,Wunderground v.1.15,2013-07-01 14:50:00,
2013-07-01 11:00:00,72.7,71.2,29.92,SSE,161,1.0,1.0,95,0.00,,,1.00,352,Wunderground v.1.15,2013-07-01 15:00:00,
2013-07-01 11:05:00,73.1,71.9,29.92,SW,225,1.0,3.0,96,0.00,,,1.00,352,Wunderground v.1.15,2013-07-01 15:05:00,
2013-07-01 11:15:00,74.3,73.1,29.92,South,171,0.0,1.0,96,0.00,,,1.00,772,Wunderground v.1.15,2013-07-01 15:15:00,
2013-07-01 11:20:00,74.8,73.3,29.92,SSW,192,0.0,0.0,95,0.00,,,1.00,831,Wunderground v.1.15,2013-07-01 15:20:00,
2013-07-01 11:25:00,75.2,73.4,29.91,SSW,202,0.0,0.0,94,0.00,,,1.00,935,Wunderground v.1.15,2013-07-01 15:25:00,
2013-07-01 11:30:00,75.8,73.6,29.92,South,173,0.0,0.0,93,0.00,,,1.00,933,Wunderground v.1.15,2013-07-01 15:30:00,
2013-07-01 11:35:00,76.4,73.6,29.91,South,189,1.0,4.0,91,0.00,,,1.00,977,Wunderground v.1.15,2013-07-01 15:35:00,
2013-07-01 11:45:00,77.1,73.9,29.92,SW,225,4.0,6.0,90,0.00,,,1.00,271,Wunderground v.1.15,2013-07-01 15:45:00,
2013-07-01 11:50:00,77.3,73.5,29.91,South,172,5.0,6.0,88,0.00,,,1.00,330,Wunderground v.1.15,2013-07-01 15:50:00,
2013-07-01 11:55:00,77.8,74.0,29.91,SSW,199,5.0,7.0,88,0.00,,,1.00,1058,Wunderground v.1.15,2013-07-01 15:55:00,
2013-07-01 12:00:00,78.2,73.7,29.91,SSW,192,6.0,6.0,86,0.00,,,1.00,504,Wunderground v.1.15,2013-07-01 16:00:00,
2013-07-01 12:05:00,78.5,74.0,29.91,SSW,200,6.0,7.0,86,0.00,,,1.00,350,Wunderground v.1.15,2013-07-01 16:05:00,
2013-07-01 12:15:00,78.7,74.2,29.91,SSE,168,4.0,7.0,86,0.00,,,1.00,352,Wunderground v.1.15,2013-07-01 16:15:00,
2013-07-01 12:20:00,78.9,74.0,29.91,South,175,2.0,11.0,85,0.00,,,1.00,248,Wunderground v.1.15,2013-07-01 16:20:00,
2013-07-01 12:30:00,79.3,74.4,29.91,SSE,167,5.0,7.0,85,0.00,,,1.00,1039,Wunderground v.1.15,2013-07-01 16:30:00,
2013-07-01 12:35:00,79.8,74.5,29.92,South,174,5.0,7.0,84,0.00,,,1.00,656,Wunderground v.1.15,2013-07-01 16:35:00,
2013-07-01 12:40:00,80.0,74.7,29.91,South,178,5.0,7.0,84,0.00,,,1.00,670,Wunderground v.1.15,2013-07-01 16:40:00,
2013-07-01 12:45:00,79.7,74.1,29.91,South,182,5.0,7.0,83,0.00,,,1.00,497,Wunderground v.1.15,2013-07-01 16:45:00,
2013-07-01 12:55:00,80.4,74.8,29.91,South,178,4.0,5.0,83,0.00,,,1.00,1190,Wunderground v.1.15,2013-07-01 16:55:00,
2013-07-01 13:00:00,80.5,74.5,29.92,South,186,6.0,7.0,82,0.00,,,1.00,599,Wunderground v.1.15,2013-07-01 17:00:00,
2013-07-01 13:05:00,80.3,74.7,29.92,South,180,8.0,10.0,83,0.00,,,1.00,501,Wunderground v.1.15,2013-07-01 17:05:00,
2013-07-01 13:10:00,80.3,74.7,29.92,SSW,192,7.0,7.0,83,0.00,,,1.00,557,Wunderground v.1.15,2013-07-01 17:10:00,
2013-07-01 13:20:00,80.5,74.5,29.91,SSE,167,6.0,10.0,82,0.00,,,1.00,503,Wunderground v.1.15,2013-07-01 17:20:00,
2013-07-01 13:25:00,80.9,74.9,29.91,South,175,5.0,10.0,82,0.00,,,1.00,487,Wunderground v.1.15,2013-07-01 17:25:00,
2013-07-01 13:30:00,81.1,74.7,29.91,South,182,5.0,5.0,81,0.00,,,1.00,587,Wunderground v.1.15,2013-07-01 17:30:00,
2013-07-01 13:40:00,81.7,75.7,29.91,SSW,196,2.0,7.0,82,0.00,,,1.00,629,Wunderground v.1.15,2013-07-01 17:40:00,
2013-07-01 13:45:00,82.0,76.0,29.92,SSW,198,3.0,7.0,82,0.00,,,1.00,1179,Wunderground v.1.15,2013-07-01 17:45:00,
2013-07-01 13:50:00,82.4,75.6,29.91,SSE,162,2.0,7.0,80,0.00,,,1.00,476,Wunderground v.1.15,2013-07-01 17:50:00,
2013-07-01 13:55:00,82.7,75.5,29.91,SSW,193,2.0,7.0,79,0.00,,,1.00,434,Wunderground v.1.15,2013-07-01 17:55:00,
2013-07-01 14:00:00,82.7,74.8,29.91,South,175,4.0,7.0,77,0.00,,,1.00,380,Wunderground v.1.15,2013-07-01 18:00:00,
2013-07-01 14:10:00,82.7,74.8,29.91,SSW,192,5.0,7.0,77,0.00,,,1.00,886,Wunderground v.1.15,2013-07-01 18:10:00,
2013-07-01 14:15:00,82.7,74.4,29.91,SSW,194,5.0,7.0,76,0.00,,,1.00,244,Wunderground v.1.15,2013-07-01 18:15:00,
2013-07-01 14:20:00,82.4,74.8,29.91,SSW,195,4.0,7.0,78,0.00,,,1.00,322,Wunderground v.1.15,2013-07-01 18:20:00,
2013-07-01 14:25:00,82.1,74.2,29.91,SSW,212,3.0,7.0,77,0.00,,,1.00,283,Wunderground v.1.15,2013-07-01 18:25:00,
2013-07-01 14:30:00,82.0,74.8,29.91,South,185,3.0,3.0,79,0.00,,,1.00,301,Wunderground v.1.15,2013-07-01 18:30:00,
2013-07-01 14:40:00,82.2,75.4,29.92,South,185,2.0,2.0,80,0.00,,,1.00,533,Wunderground v.1.15,2013-07-01 18:40:00,
2013-07-01 14:45:00,82.4,75.2,29.91,South,170,3.0,3.0,79,0.00,,,1.00,322,Wunderground v.1.15,2013-07-01 18:45:00,
2013-07-01 14:50:00,82.6,75.0,29.91,South,180,2.0,7.0,78,0.00,,,1.00,817,Wunderground v.1.15,2013-07-01 18:50:00,
2013-07-01 14:55:00,83.0,75.4,29.91,SSE,167,4.0,7.0,78,0.00,,,1.00,513,Wunderground v.1.15,2013-07-01 18:55:00,
2013-07-01 15:00:00,82.9,75.7,29.91,South,175,3.0,7.0,79,0.00,,,1.00,86,Wunderground v.1.15,2013-07-01 19:00:00,
2013-07-01 15:10:00,80.8,75.9,29.92,SE,133,1.0,1.0,85,0.15,,,1.05,100,Wunderground v.1.15,2013-07-01 19:10:00,
2013-07-01 15:15:00,79.4,75.5,29.92,SE,133,0.0,7.0,88,0.15,,,1.06,67,Wunderground v.1.15,2013-07-01 19:15:00,
2013-07-01 15:20:00,78.4,75.2,29.91,SE,133,0.0,7.0,90,0.07,,,1.06,116,Wunderground v.1.15,2013-07-01 19:20:00,
2013-07-01 15:25:00,77.9,75.4,29.92,SSE,161,0.0,7.0,92,0.04,,,1.06,213,Wunderground v.1.15,2013-07-01 19:25:00,
2013-07-01 15:30:00,77.8,75.6,29.92,SSE,161,0.0,7.0,93,0.00,,,1.06,239,Wunderground v.1.15,2013-07-01 19:30:00,
2013-07-01 15:35:00,77.8,75.6,29.92,SSE,167,0.0,7.0,93,0.00,,,1.06,243,Wunderground v.1.15,2013-07-01 19:35:00,
2013-07-01 15:45:00,78.5,76.3,29.92,South,190,0.0,7.0,93,0.00,,,1.07,387,Wunderground v.1.15,2013-07-01 19:45:00,
2013-07-01 15:50:00,78.9,76.7,29.92,South,185,0.0,7.0,93,0.00,,,1.07,545,Wunderground v.1.15,2013-07-01 19:50:00,
2013-07-01 16:00:00,79.8,76.9,29.92,South,182,0.0,7.0,91,0.00,,,1.07,316,Wunderground v.1.15,2013-07-01 20:00:00,
2013-07-01 16:05:00,79.7,76.5,29.91,East,85,0.0,7.0,90,0.00,,,1.07,149,Wunderground v.1.15,2013-07-01 20:05:00,
2013-07-01 16:10:00,79.5,76.6,29.92,South,190,0.0,7.0,91,0.00,,,1.07,111,Wunderground v.1.15,2013-07-01 20:10:00,
2013-07-01 16:15:00,79.1,75.9,29.92,SE,139,0.0,7.0,90,0.00,,,1.07,95,Wunderground v.1.15,2013-07-01 20:15:00,
2013-07-01 16:20:00,78.7,75.2,29.91,South,173,1.0,7.0,89,0.00,,,1.07,186,Wunderground v.1.15,2013-07-01 20:20:00,
2013-07-01 16:30:00,78.7,75.5,29.92,South,179,2.0,7.0,90,0.00,,,1.07,54,Wunderground v.1.15,2013-07-01 20:30:00,
2013-07-01 16:35:00,78.1,74.3,29.92,SE,128,2.0,7.0,88,0.00,,,1.07,121,Wunderground v.1.15,2013-07-01 20:35:00,
2013-07-01 16:40:00,77.7,74.5,29.92,South,183,3.0,3.0,90,0.00,,,1.07,257,Wunderground v.1.15,2013-07-01 20:40:00,
2013-07-01 16:45:00,77.5,74.7,29.92,South,182,3.0,11.0,91,0.00,,,1.07,302,Wunderground v.1.15,2013-07-01 20:45:00,
2013-07-01 16:50:00,77.5,74.7,29.92,SSE,155,2.0,2.0,91,0.00,,,1.07,309,Wunderground v.1.15,2013-07-01 20:50:00,
2013-07-01 17:00:00,77.9,75.4,29.92,SSE,163,3.0,7.0,92,0.00,,,1.07,322,Wunderground v.1.15,2013-07-01 21:00:00,
2013-07-01 17:05:00,78.1,75.6,29.91,SE,128,3.0,7.0,92,0.00,,,1.07,376,Wunderground v.1.15,2013-07-01 21:05:00,
2013-07-01 17:10:00,78.5,75.7,29.92,South,182,3.0,3.0,91,0.00,,,1.07,388,Wunderground v.1.15,2013-07-01 21:10:00,
2013-07-01 17:20:00,78.9,76.0,29.92,SSE,158,5.0,7.0,91,0.00,,,1.07,185,Wunderground v.1.15,2013-07-01 21:20:00,
2013-07-01 17:25:00,78.9,75.7,29.92,SE,142,5.0,7.0,90,0.00,,,1.07,202,Wunderground v.1.15,2013-07-01 21:25:00,
2013-07-01 17:30:00,79.1,75.9,29.92,South,188,5.0,9.0,90,0.00,,,1.07,285,Wunderground v.1.15,2013-07-01 21:30:00,
2013-07-01 17:35:00,79.2,76.0,29.92,SSE,150,5.0,9.0,90,0.00,,,1.07,171,Wunderground v.1.15,2013-07-01 21:35:00,
2013-07-01 17:45:00,79.1,75.6,29.92,SSW,202,2.0,4.0,89,0.00,,,1.07,316,Wunderground v.1.15,2013-07-01 21:45:00,
2013-07-01 17:50:00,79.3,75.8,29.92,SSE,153,4.0,9.0,89,0.00,,,1.07,260,Wunderground v.1.15,2013-07-01 21:50:00,
2013-07-01 17:55:00,79.4,75.9,29.92,SSW,194,5.0,9.0,89,0.00,,,1.07,158,Wunderground v.1.15,2013-07-01 21:55:00,
2013-07-01 18:00:00,79.1,75.6,29.92,SE,132,4.0,4.0,89,0.00,,,1.07,253,Wunderground v.1.15,2013-07-01 22:00:00,
2013-07-01 18:05:00,79.0,75.8,29.92,South,185,2.0,10.0,90,0.00,,,1.07,304,Wunderground v.1.15,2013-07-01 22:05:00,
2013-07-01 18:15:00,79.0,75.5,29.93,South,188,5.0,7.0,89,0.00,,,1.07,350,Wunderground v.1.15,2013-07-01 22:15:00,
2013-07-01 18:20:00,79.3,75.8,29.93,SE,141,4.0,4.0,89,0.00,,,1.07,243,Wunderground v.1.15,2013-07-01 22:20:00,
2013-07-01 18:25:00,79.4,75.9,29.92,South,174,4.0,11.0,89,0.00,,,1.07,229,Wunderground v.1.15,2013-07-01 22:25:00,
2013-07-01 18:30:00,79.4,75.5,29.92,South,179,4.0,10.0,88,0.00,,,1.07,160,Wunderground v.1.15,2013-07-01 22:30:00,
2013-07-01 18:40:00,79.2,75.7,29.93,South,169,3.0,7.0,89,0.00,,,1.07,127,Wunderground v.1.15,2013-07-01 22:40:00,
2013-07-01 18:45:00,79.0,75.1,29.93,SE,137,4.0,9.0,88,0.00,,,1.07,127,Wunderground v.1.15,2013-07-01 22:45:00,
2013-07-01 18:50:00,78.9,75.0,29.93,SSE,154,7.0,7.0,88,0.00,,,1.07,91,Wunderground v.1.15,2013-07-01 22:50:00,
2013-07-01 18:55:00,78.8,74.9,29.92,South,184,6.0,7.0,88,0.00,,,1.07,102,Wunderground v.1.15,2013-07-01 22:55:00,
2013-07-01 19:05:00,78.6,74.7,29.93,SSE,163,0.0,7.0,88,0.00,,,1.07,83,Wunderground v.1.15,2013-07-01 23:05:00,
2013-07-01 19:10:00,78.6,75.1,29.93,South,179,0.0,7.0,89,0.00,,,1.07,63,Wunderground v.1.15,2013-07-01 23:10:00,
2013-07-01 19:15:00,78.5,75.0,29.94,SSE,168,1.0,7.0,89,0.00,,,1.07,53,Wunderground v.1.15,2013-07-01 23:15:00,
2013-07-01 19:20:00,78.4,74.2,29.94,South,171,4.0,7.0,87,0.00,,,1.07,42,Wunderground v.1.15,2013-07-01 23:20:00,
2013-07-01 19:30:00,78.2,74.7,29.94,SSE,150,3.0,3.0,89,0.00,,,1.07,30,Wunderground v.1.15,2013-07-01 23:30:00,
2013-07-01 19:35:00,78.1,74.6,29.95,SE,129,0.0,7.0,89,0.00,,,1.07,23,Wunderground v.1.15,2013-07-01 23:35:00,
2013-07-01 19:40:00,77.9,74.4,29.95,South,174,1.0,1.0,89,0.00,,,1.07,25,Wunderground v.1.15,2013-07-01 23:40:00,
2013-07-01 19:45:00,77.8,74.3,29.95,South,180,3.0,6.0,89,0.00,,,1.07,23,Wunderground v.1.15,2013-07-01 23:45:00,
2013-07-01 19:50:00,77.6,74.4,29.95,South,181,3.0,3.0,90,0.00,,,1.07,18,Wunderground v.1.15,2013-07-01 23:50:00,
2013-07-01 20:00:00,77.5,73.7,29.96,SSE,153,9.0,9.0,88,0.00,,,1.07,18,Wunderground v.1.15,2013-07-02 00:00:00,
2013-07-01 20:05:00,77.3,73.5,29.96,SSE,166,12.0,12.0,88,0.00,,,1.08,14,Wunderground v.1.15,2013-07-02 00:05:00,
2013-07-01 20:10:00,77.2,73.4,29.96,SSW,194,11.0,11.0,88,0.00,,,1.08,11,Wunderground v.1.15,2013-07-02 00:10:00,
2013-07-01 20:20:00,76.9,73.4,29.96,South,186,7.0,10.0,89,0.00,,,1.08,5,Wunderground v.1.15,2013-07-02 00:20:00,
2013-07-01 20:25:00,76.7,73.2,29.97,South,171,7.0,10.0,89,0.00,,,1.08,0,Wunderground v.1.15,2013-07-02 00:25:00,
2013-07-01 20:30:00,76.5,73.0,29.96,South,175,8.0,8.0,89,0.00,,,1.08,0,Wunderground v.1.15,2013-07-02 00:30:00,
2013-07-01 20:35:00,76.4,72.9,29.96,South,176,9.0,12.0,89,0.00,,,1.08,0,Wunderground v.1.15,2013-07-02 00:35:00,
2013-07-01 20:40:00,76.4,72.9,29.96,SE,132,10.0,10.0,89,0.00,,,1.08,0,Wunderground v.1.15,2013-07-02 00:40:00,
2013-07-01 20:50:00,76.2,72.7,29.96,South,178,9.0,9.0,89,0.00,,,1.08,0,Wunderground v.1.15,2013-07-02 00:50:00,
2013-07-01 20:55:00,76.1,72.6,29.96,South,187,8.0,9.0,89,0.00,,,1.08,0,Wunderground v.1.15,2013-07-02 00:55:00,
2013-07-01 21:00:00,76.1,72.6,29.97,South,178,6.0,9.0,89,0.00,,,1.08,0,Wunderground v.1.15,2013-07-02 01:00:00,
2013-07-01 21:05:00,76.0,72.9,29.96,SE,129,7.0,9.0,90,0.00,,,1.08,0,Wunderground v.1.15,2013-07-02 01:05:00,
2013-07-01 21:15:00,75.9,72.8,29.97,South,175,6.0,9.0,90,0.00,,,1.08,0,Wunderground v.1.15,2013-07-02 01:15:00,
2013-07-01 21:20:00,75.9,72.8,29.97,SSE,167,6.0,6.0,90,0.00,,,1.08,0,Wunderground v.1.15,2013-07-02 01:20:00,
2013-07-01 21:25:00,75.8,72.7,29.97,SSW,208,5.0,7.0,90,0.00,,,1.08,0,Wunderground v.1.15,2013-07-02 01:25:00,
2013-07-01 21:30:00,75.8,72.7,29.97,South,171,5.0,5.0,90,0.00,,,1.08,0,Wunderground v.1.15,2013-07-02 01:30:00,
2013-07-01 21:35:00,75.7,72.6,29.97,South,172,5.0,7.0,90,0.00,,,1.08,0,Wunderground v.1.15,2013-07-02 01:35:00,
2013-07-01 21:45:00,75.6,72.8,29.98,SSE,164,2.0,8.0,91,0.00,,,1.08,0,Wunderground v.1.15,2013-07-02 01:45:00,
2013-07-01 21:50:00,75.5,72.7,29.98,South,169,2.0,10.0,91,0.00,,,1.08,0,Wunderground v.1.15,2013-07-02 01:50:00,
2013-07-01 21:55:00,75.5,72.7,29.98,South,172,3.0,10.0,91,0.00,,,1.08,0,Wunderground v.1.15,2013-07-02 01:55:00,
2013-07-01 22:00:00,75.4,72.6,29.98,South,175,2.0,9.0,91,0.00,,,1.08,0,Wunderground v.1.15,2013-07-02 02:00:00,
2013-07-01 22:05:00,75.3,72.5,29.99,SSE,166,3.0,9.0,91,0.00,,,1.08,0,Wunderground v.1.15,2013-07-02 02:05:00,
2013-07-01 22:15:00,75.4,72.6,30.00,SSW,200,5.0,6.0,91,0.00,,,1.08,0,Wunderground v.1.15,2013-07-02 02:15:00,
2013-07-01 22:20:00,75.3,72.5,30.00,South,185,2.0,7.0,91,0.00,,,1.08,0,Wunderground v.1.15,2013-07-02 02:20:00,
2013-07-01 22:25:00,75.2,72.7,29.99,SSE,168,1.0,7.0,92,0.00,,,1.08,0,Wunderground v.1.15,2013-07-02 02:25:00,
2013-07-01 22:30:00,75.2,72.7,29.99,South,188,1.0,1.0,92,0.00,,,1.08,0,Wunderground v.1.15,2013-07-02 02:30:00,
2013-07-01 22:40:00,75.1,72.6,29.99,South,177,0.0,7.0,92,0.00,,,1.08,0,Wunderground v.1.15,2013-07-02 02:40:00,
2013-07-01 22:45:00,75.1,72.6,29.99,SSE,164,0.0,7.0,92,0.00,,,1.08,0,Wunderground v.1.15,2013-07-02 02:45:00,
2013-07-01 22:50:00,75.0,72.5,29.98,SSE,159,1.0,1.0,92,0.00,,,1.08,0,Wunderground v.1.15,2013-07-02 02:50:00,
2013-07-01 22:55:00,75.0,72.8,29.98,South,175,1.0,7.0,93,0.00,,,1.08,0,Wunderground v.1.15,2013-07-02 02:55:00,
2013-07-01 23:05:00,75.0,72.8,29.99,SSE,168,0.0,7.0,93,0.00,,,1.08,0,Wunderground v.1.15,2013-07-02 03:05:00,
2013-07-01 23:10:00,75.0,72.8,29.99,SSE,156,0.0,7.0,93,0.00,,,1.08,0,Wunderground v.1.15,2013-07-02 03:10:00,
2013-07-01 23:15:00,75.0,72.8,29.99,SSE,156,0.0,7.0,93,0.00,,,1.08,0,Wunderground v.1.15,2013-07-02 03:15:00,
2013-07-01 23:20:00,75.0,72.8,29.99,SSE,156,0.0,7.0,93,0.00,,,1.08,0,Wunderground v.1.15,2013-07-02 03:20:00,
2013-07-01 23:25:00,74.9,72.7,29.98,SSE,156,0.0,7.0,93,0.00,,,1.08,0,Wunderground v.1.15,2013-07-02 03:25:00,
2013-07-01 23:35:00,74.8,72.6,29.98,SSE,155,0.0,7.0,93,0.00,,,1.08,0,Wunderground v.1.15,2013-07-02 03:35:00,
2013-07-01 23:40:00,74.8,72.6,29.99,South,183,0.0,7.0,93,0.00,,,1.08,0,Wunderground v.1.15,2013-07-02 03:40:00,
2013-07-01 23:45:00,74.8,72.6,29.98,South,173,0.0,7.0,93,0.00,,,1.08,0,Wunderground v.1.15,2013-07-02 03:45:00,
2013-07-01 23:55:00,74.7,72.5,29.98,South,179,0.0,7.0,93,0.00,,,1.08,0,Wunderground v.1.15,2013-07-02 03:55:00,